Find Starlink 5733

NORAD ID: 56925 Int'l Des: 2023-083 Owner: SPXS Country: US Constellation: starlink operational
LEOCIRCULAR

Live Position

Loading 3D Globe...

About Starlink 5733

Description loading...

Upcoming Passes

Passes for default location (London). Set your location on the main map for personalized predictions.

Altitude History

Loading altitude history...

Two-Line Element Set

1 56925U 23083BB 26106.64499510 .00000649 00000-0 33871-4 0 9991
2 56925 43.0015 216.2594 0001731 274.3211 85.7443 15.26743433157601
Epoch: Apr 16, 2026 • Age: 15 hours

Current Status

Altitude 489.8 km
Velocity 7.63 km/s
Sub-Earth Point 42.74°N, 16.69°E
Launch Date Jun 12, 2023
Age 2.8 years
Type internet

Technical Details

Classification Payload
Mass 305.00 kg
Dry Mass 290.00 kg
Total Mass 305.00 kg
Length 0.20 m
Diameter 2.80 m
Span 9.00 m
Shape Box + pan
Manufacturer SPXS
Bus Type Starlink
Phase Status In Orbit
Owner/State SPXS/US

Most Searched